This demonstration page uses our WeatherBlox Daily Observations layout. Learn more.

Left ArrowRight Arrow

34.02893, -84.19858

Hourly Observations for August 13, 2020

Temp ( °F °C ) Dew Point ( °F °C ) Humidity (%) Winds ( mph kmh ) Pressure ( in mb ) Visibility ( mi km ) Precip ( " mm )
12:53 am 00:53 Mostly Cloudy 76 24.4 72 22.2 88 88 Calm 29.97 1015 10 16 0.00 0.00
1:53 am 01:53 Clear 74 23.3 72 22.2 94 94 SW 3 6 29.97 1015 10 16 0.00 0.00
2:53 am 02:53 Clear 74 23.3 72 22.2 94 94 WSW 3 6 29.97 1015 10 16 0.00 0.00
3:53 am 03:53 Clear 73 22.8 72 22.2 96 96 Calm 29.96 1015 10 16 0.00 0.00
4:53 am 04:53 Clear 74 23.3 72 22.2 94 94 Calm 29.96 1015 10 16 0.00 0.00
5:53 am 05:53 Clear 73 22.8 71 21.7 94 94 Calm 29.98 1015 10 16 0.00 0.00
6:53 am 06:53 Clear 72 22.2 70 21.1 94 94 Calm 30.00 1016 10 16 0.00 0.00
7:53 am 07:53 Sunny 73 22.8 71 21.7 94 94 N 3 6 30.01 1016 10 16 0.00 0.00
8:53 am 08:53 Sunny 75 23.9 71 21.7 88 88 S 5 7 30.03 1017 10 16 0.00 0.00
9:53 am 09:53 Sunny 77 25 71 21.7 82 82 Calm 30.03 1017 10 16 0.00 0.00
10:53 am 10:53 Sunny 79 26.1 71 21.7 77 77 ESE 3 6 30.02 1017 10 16 0.00 0.00
11:53 am 11:53 Sunny 85 29.4 72 22.2 65 65 NW 3 6 30.01 1016 10 16 0.00 0.00
12:53 pm 12:53 Sunny 86 30 72 22.2 63 63 VRB 3 6 30.00 1016 10 16 0.00 0.00
1:53 pm 13:53 Sunny 89 31.7 73 22.8 59 59 VRB 3 6 29.98 1015 10 16 0.00 0.00
2:53 pm 14:53 Sunny 91 32.8 72 22.2 54 54 VRB 3 6 29.92 1013 10 16 0.00 0.00
3:53 pm 15:53 Sunny 90 32.2 70 21.1 52 52 NW 5 7 29.88 1012 10 16 0.00 0.00
4:53 pm 16:53 Sunny 92 33.3 71 21.7 51 51 SSW 6 9 29.87 1011 10 16 0.00 0.00
5:53 pm 17:53 Mostly Cloudy 92 33.3 70 21.1 49 49 W 5 7 29.86 1011 10 16 0.00 0.00
6:53 pm 18:53 Sunny 90 32.2 71 21.7 54 54 SW 6 9 29.87 1012 10 16 0.00 0.00
6:58 pm 18:58 Sunny with Thunderstorms 89 31.7 71 21.7 55 55 W 6 9 29.87 1012 10 16 0.00 0.00
7:53 pm 19:53 Cloudy with Thunderstorms 81 27.2 68 20 65 65 NW 15 24 29.90 1013 10 16 0.00 0.00
8:42 pm 20:42 Mostly Cloudy with Light Rain 75 23.9 72 22.2 90 90 E 6 9 29.93 1014 8 13 0.04 1.02
8:53 pm 20:53 Cloudy with Nearby Thunderstorms 75 23.9 72 22.2 90 90 VRB 7 11 29.92 1013 8 13 0.04 1.02
9:08 pm 21:08 Cloudy 75 23.9 72 22.2 90 90 undefined N/A 29.95 1014 10 16 0.00 0.00
9:37 pm 21:37 Cloudy with Thunderstorms 73 22.8 72 22.2 96 96 VRB 5 7 29.96 1015 10 16 0.02 0.51
9:53 pm 21:53 Cloudy with Thunderstorms 73 22.8 71 21.7 94 94 SSE 5 7 29.96 1015 10 16 0.02 0.51
10:08 pm 22:08 Cloudy with Strong Thunderstorms 72 22.2 71 21.7 97 97 S 10 17 30.01 1016 2 3 0.23 5.84
10:22 pm 22:22 Cloudy with Strong Thunderstorms 72 22.2 71 21.7 97 97 SE 7 11 30.00 1016 2 2 0.54 13.72
10:36 pm 22:36 Cloudy with Nearby Thunderstorms 71 21.7 71 21.7 100 100 SSE 7 11 30.01 1016 2 3 0.67 17.02
10:43 pm 22:43 Cloudy with Nearby Thunderstorms 71 21.7 71 21.7 100 100 SSE 7 11 30.01 1016 2 3 0.82 20.83
10:53 pm 22:53 Cloudy with Nearby Thunderstorms 72 22.2 71 21.7 97 97 SSE 7 11 29.99 1016 2 3 0.91 23.11
11:00 pm 23:00 Cloudy with Nearby Thunderstorms 72 22.2 71 21.7 97 97 S 6 9 30.02 1016 2 3 0.07 1.78
11:05 pm 23:05 Cloudy with Nearby Thunderstorms 72 22.2 72 22.2 100 100 S 3 6 30.02 1016 2 2 0.13 3.30
11:11 pm 23:11 Cloudy with Strong Thunderstorms 71 21.7 71 21.7 100 100 Calm 30.02 1017 1 1 0.31 7.87
11:19 pm 23:19 Mostly Cloudy with Strong Thunderstorms 71 21.7 71 21.7 100 100 VRB 7 11 30.00 1016 1 1 0.74 18.80
11:31 pm 23:31 Cloudy with Strong Thunderstorms 71 21.7 71 21.7 100 100 SSE 8 13 29.99 1016 1 2 1.03 26.16
11:38 pm 23:38 Cloudy with Nearby Thunderstorms 71 21.7 71 21.7 100 100 S 7 11 29.99 1016 2 3 1.07 27.18
11:42 pm 23:42 Cloudy with Rain 71 21.7 71 21.7 100 100 SSE 8 13 29.99 1016 3 5 1.09 27.69
11:53 pm 23:53 Mostly Cloudy with Light Rain 72 22.2 71 21.7 97 97 S 7 11 29.97 1015 6 10 1.11 28.19

Powered by AerisWeather